When you browse on this site, cookies collect data to enhance your experience and personalize the content and advertising you see.
Visit our Privacy Policy to learn more. By continuing to use the site, you agree to this use of cookies and data.
  • în România
  • Lista ţărilor
  • Pe 7 zile
  • Temperatura apei
  • Hartă satelitară
  • Meteo pe hartă
  • Widget-uri
  • user-avatar
    Intrare

    Meteo pe oră la Zagorskiy

    Astăzi, 16 Ianuarie, Miercuri

    Timp Temperatura Precipitaţii Vânt Presiune Umiditate
    00:00 -1°C° 0 mm 3 m/s 720 mmHg 85%
    01:00 -1°C° 0 mm 2 m/s 720 mmHg 82%
    02:00 +1°C° 0 mm 2 m/s 719 mmHg 79%
    03:00 0°C° 0 mm 0 m/s 719 mmHg 83%
    04:00 +1°C° 0 mm 0 m/s 719 mmHg 79%
    05:00 +1°C° 0 mm 0 m/s 719 mmHg 76%
    06:00 +2°C° 0 mm 0 m/s 719 mmHg 72%
    07:00 +4°C° 0 mm 1 m/s 719 mmHg 68%
    08:00 +4°C° 0 mm 1 m/s 719 mmHg 64%
    09:00 +6°C° 0 mm 1 m/s 718 mmHg 60%
    10:00 +5°C° 0 mm 2 m/s 719 mmHg 59%
    11:00 +5°C° 0 mm 3 m/s 720 mmHg 58%
    12:00 +6°C° 0 mm 4 m/s 721 mmHg 57%
    13:00 +5°C° 0 mm 5 m/s 721 mmHg 64%
    14:00 +2°C° 0 mm 7 m/s 722 mmHg 71%
    15:00 0°C° 0 mm 8 m/s 723 mmHg 79%
    16:00 -1°C° 0 mm 7 m/s 723 mmHg 79%
    17:00 -2°C° 0 mm 6 m/s 724 mmHg 79%
    18:00 -2°C° 0 mm 5 m/s 725 mmHg 79%
    19:00 -2°C° 0 mm 5 m/s 725 mmHg 79%
    20:00 -2°C° 0 mm 5 m/s 726 mmHg 78%
    21:00 -4°C° 0 mm 5 m/s 726 mmHg 77%
    22:00 -3°C° 0 mm 4 m/s 727 mmHg 76%
    23:00 -2°C° 0 mm 3 m/s 727 mmHg 75%

    Mâine, 17 Ianuarie, Joi

    Timp Temperatura Precipitaţii Vânt Presiune Umiditate
    00:00 -2°C° 0 mm 3 m/s 727 mmHg 74%
    01:00 -2°C° 0 mm 2 m/s 728 mmHg 74%
    02:00 -2°C° 0 mm 2 m/s 728 mmHg 74%
    03:00 -2°C° 0 mm 2 m/s 728 mmHg 75%
    04:00 -2°C° 0 mm 2 m/s 729 mmHg 75%
    05:00 0°C° 0 mm 1 m/s 729 mmHg 76%
    06:00 0°C° 0 mm 1 m/s 730 mmHg 76%
    07:00 0°C° 0 mm 1 m/s 730 mmHg 75%
    08:00 0°C° 0 mm 1 m/s 731 mmHg 75%
    09:00 -1°C° 0 mm 0 m/s 732 mmHg 74%
    10:00 -1°C° 0 mm 0 m/s 732 mmHg 71%
    11:00 +1°C° 0 mm 1 m/s 732 mmHg 69%
    12:00 +1°C° 0 mm 1 m/s 732 mmHg 66%
    13:00 +2°C° 0 mm 1 m/s 732 mmHg 66%
    14:00 +2°C° 0 mm 1 m/s 733 mmHg 65%
    15:00 +2°C° 0 mm 1 m/s 733 mmHg 65%
    16:00 +1°C° 0 mm 1 m/s 733 mmHg 70%
    17:00 0°C° 0 mm 1 m/s 734 mmHg 75%
    18:00 -2°C° 0 mm 2 m/s 734 mmHg 80%
    19:00 0°C° 0 mm 1 m/s 735 mmHg 81%
    20:00 -1°C° 0 mm 1 m/s 735 mmHg 82%
    21:00 -1°C° 0 mm 1 m/s 735 mmHg 83%
    22:00 -1°C° 0 mm 1 m/s 736 mmHg 81%
    23:00 0°C° 0 mm 1 m/s 736 mmHg 80%

    Poimâine, 18 Ianuarie, Vineri

    Timp Temperatura Precipitaţii Vânt Presiune Umiditate
    00:00 -1°C° 0 mm 0 m/s 736 mmHg 78%
    01:00 -1°C° 0 mm 0 m/s 736 mmHg 75%
    02:00 0°C° 0 mm 1 m/s 737 mmHg 73%
    03:00 0°C° 0 mm 1 m/s 737 mmHg 71%
    04:00 0°C° 0 mm 1 m/s 737 mmHg 68%
    05:00 0°C° 0 mm 1 m/s 737 mmHg 64%
    06:00 0°C° 0 mm 1 m/s 737 mmHg 61%
    07:00 +1°C° 0 mm 1 m/s 737 mmHg 57%
    08:00 +1°C° 0 mm 1 m/s 737 mmHg 54%
    09:00 +2°C° 0 mm 1 m/s 737 mmHg 50%
    10:00 +3°C° 0 mm 1 m/s 737 mmHg 46%
    11:00 +3°C° 0 mm 0 m/s 737 mmHg 43%
    12:00 +4°C° 0 mm 0 m/s 736 mmHg 39%
    13:00 +5°C° 0 mm 1 m/s 736 mmHg 42%
    14:00 +5°C° 0 mm 1 m/s 735 mmHg 44%
    15:00 +5°C° 0 mm 1 m/s 735 mmHg 47%
    16:00 +4°C° 0 mm 1 m/s 735 mmHg 52%
    17:00 +2°C° 0 mm 2 m/s 736 mmHg 57%
    18:00 -1°C° 0 mm 2 m/s 736 mmHg 63%
    19:00 +1°C° 0 mm 1 m/s 736 mmHg 62%
    20:00 +1°C° 0 mm 1 m/s 736 mmHg 61%
    21:00 +1°C° 0 mm 1 m/s 736 mmHg 61%
    22:00 +1°C° 0 mm 1 m/s 736 mmHg 58%
    23:00 +1°C° 0 mm 1 m/s 736 mmHg 56%

    19 Ianuarie, Sâmbătă

    Timp Temperatura Precipitaţii Vânt Presiune Umiditate
    00:00 +1°C° 0 mm 1 m/s 736 mmHg 53%
    01:00 +1°C° 0 mm 1 m/s 736 mmHg 50%
    02:00 +1°C° 0 mm 1 m/s 735 mmHg 47%
    03:00 +2°C° 0 mm 1 m/s 735 mmHg 44%
    04:00 +2°C° 0 mm 1 m/s 735 mmHg 42%
    05:00 +2°C° 0 mm 1 m/s 735 mmHg 40%
    06:00 +2°C° 0 mm 1 m/s 735 mmHg 38%
    07:00 +2°C° 0 mm 1 m/s 736 mmHg 36%
    08:00 +3°C° 0 mm 1 m/s 736 mmHg 34%
    09:00 +3°C° 0 mm 1 m/s 736 mmHg 33%
    10:00 +5°C° 0 mm 1 m/s 736 mmHg 31%
    11:00 +6°C° 0 mm 1 m/s 736 mmHg 30%
    12:00 +8°C° 0 mm 1 m/s 736 mmHg 28%
    13:00 +8°C° 0 mm 1 m/s 736 mmHg 34%
    14:00 +7°C° 0 mm 1 m/s 736 mmHg 40%
    15:00 +7°C° 0 mm 1 m/s 735 mmHg 45%
    16:00 +6°C° 0 mm 1 m/s 736 mmHg 51%
    17:00 +4°C° 0 mm 1 m/s 736 mmHg 56%
    18:00 +2°C° 0 mm 0 m/s 736 mmHg 62%
    19:00 +3°C° 0 mm 1 m/s 736 mmHg 62%
    20:00 +3°C° 0 mm 1 m/s 736 mmHg 63%
    21:00 +2°C° 0 mm 1 m/s 737 mmHg 63%
    22:00 +2°C° 0 mm 1 m/s 737 mmHg 62%
    23:00 +2°C° 0 mm 1 m/s 737 mmHg 61%

    20 Ianuarie, Duminică

    Timp Temperatura Precipitaţii Vânt Presiune Umiditate
    00:00 +2°C° 0 mm 1 m/s 737 mmHg 60%
    01:00 +2°C° 0 mm 1 m/s 737 mmHg 60%
    02:00 +1°C° 0 mm 0 m/s 737 mmHg 61%
    03:00 +1°C° 0 mm 0 m/s 737 mmHg 62%
    04:00 +1°C° 0 mm 0 m/s 737 mmHg 64%
    05:00 +2°C° 0 mm 1 m/s 737 mmHg 67%
    06:00 +2°C° 0 mm 1 m/s 737 mmHg 70%
    07:00 +2°C° 0 mm 1 m/s 737 mmHg 69%
    08:00 +1°C° 0 mm 2 m/s 737 mmHg 69%
    09:00 +1°C° 0 mm 2 m/s 738 mmHg 69%
    10:00 +2°C° 0 mm 2 m/s 737 mmHg 63%
    11:00 +3°C° 0 mm 2 m/s 737 mmHg 57%
    12:00 +4°C° 0 mm 2 m/s 737 mmHg 51%
    13:00 +4°C° 0 mm 2 m/s 736 mmHg 53%
    14:00 +4°C° 0 mm 2 m/s 736 mmHg 55%
    15:00 +5°C° 0 mm 2 m/s 736 mmHg 57%
    16:00 +4°C° 0 mm 2 m/s 736 mmHg 65%
    17:00 +3°C° 0 mm 2 m/s 736 mmHg 72%
    18:00 +2°C° 0 mm 2 m/s 736 mmHg 79%
    19:00 +1°C° 0 mm 2 m/s 736 mmHg 81%
    20:00 +1°C° 0 mm 2 m/s 736 mmHg 84%
    21:00 -1°C° 0 mm 2 m/s 736 mmHg 86%
    22:00 -1°C° 0 mm 2 m/s 736 mmHg 85%
    23:00 -1°C° 0 mm 2 m/s 736 mmHg 85%

    21 Ianuarie, Luni

    Timp Temperatura Precipitaţii Vânt Presiune Umiditate
    00:00 -1°C° 0 mm 2 m/s 736 mmHg 84%
    01:00 -1°C° 0 mm 2 m/s 736 mmHg 84%
    02:00 +1°C° 0 mm 1 m/s 736 mmHg 84%
    03:00 +1°C° 0 mm 1 m/s 735 mmHg 84%
    04:00 -1°C° 0 mm 2 m/s 735 mmHg 84%
    05:00 -1°C° 0 mm 2 m/s 735 mmHg 84%
    06:00 -1°C° 0 mm 2 m/s 735 mmHg 84%
    07:00 -1°C° 0 mm 2 m/s 735 mmHg 81%
    08:00 -1°C° 0 mm 2 m/s 735 mmHg 79%
    09:00 +1°C° 0 mm 2 m/s 734 mmHg 76%
    10:00 +2°C° 0 mm 2 m/s 734 mmHg 69%
    11:00 +3°C° 0 mm 2 m/s 733 mmHg 62%
    12:00 +5°C° 0 mm 2 m/s 733 mmHg 55%
    13:00 +5°C° 0 mm 2 m/s 732 mmHg 56%
    14:00 +5°C° 0 mm 2 m/s 732 mmHg 57%
    15:00 +5°C° 0 mm 2 m/s 732 mmHg 57%
    16:00 +4°C° 0 mm 2 m/s 732 mmHg 63%
    17:00 +3°C° 0 mm 2 m/s 732 mmHg 69%
    18:00 +3°C° 0 mm 1 m/s 732 mmHg 74%
    19:00 +3°C° 0 mm 1 m/s 732 mmHg 72%
    20:00 +3°C° 0 mm 1 m/s 732 mmHg 70%
    21:00 +3°C° 0 mm 1 m/s 732 mmHg 68%
    22:00 +3°C° 0 mm 1 m/s 732 mmHg 65%
    23:00 +3°C° 0 mm 1 m/s 732 mmHg 62%
    Arată mai mult